Weather in Put Sotsializma

Russia / Omsk Oblast     55°45′19″N   71°15′48″E
temp.,
°C
wind,
m/s
gust,
m/s
humid.,
%
clouds,
%
prec.,
mm/h
press.,
hPa
HPBL,
m
19 april, mon
mon1900:00−5n8115763 0.1 10251287
03:00−7n710515 0.0 10271084
06:00−9n685127 0.0 1030995
09:00−7n674471 0.0 10311211
12:00−5n673359 0.0 10321575
15:00−2n6728100 0.0 10312080
18:00−2n6729100 0.0 10312188
21:00−4nne47425 0.0 1032455
20 april, tue
tue2000:00−5nne25495 0.0 1033353
03:00−5n22533 0.0 103396
06:00−6nnw22560 0.0 103336
09:00−4wnw34415 0.0 10331113
12:00−1wnw45304 0.0 10311396
15:00+3w67285 0.0 10281518
18:00+4w79335 0.0 10261647
21:00+1wsw51253100 0.0 1025290
21 april, wed
wed2100:00+1w61458100 0.0 1023343
03:00+1wnw61465100 0.0 1022447
06:000nnw51184100 0.0 1023396
09:00+2nnw696464 0.0 10251049
12:00+5n78525 0.0 10261270
15:00+6n68435 0.0 10281590
18:00+6nne674349 0.0 10301625
21:00+2ene48625 0.0 1034328
22 april, thu
thu2200:00−1ene26765 0.0 1036212
03:00−1ene24772 0.0 1038134
06:00−2e23785 0.0 104096
09:00+1ese34565 0.0 1041751
12:00+4ese22425 0.0 10421235
15:00+7ese323643 0.0 10421418
18:00+7se3335100 0.0 10411426
21:00+4se355195 0.0 104371
23 april, fri
fri2300:00+2se366085 0.0 1043111
03:000sse36655 0.0 1043110
06:000sse366714 0.0 1044117
09:00+4sse46500 0.0 1044473
12:00+7sse45400 0.0 10431339
15:00+9sse44355 0.0 10421544
18:00+9sse44345 0.0 10411539
21:00+5se35505 0.0 104173